Regional Weather Roundup
Issued by NWS

Home | Current Version | Previous Version | Graphics & Text | Print | Product List | Glossary On
Versions: 1 2 3 4 5 6 7 8 9 10 11 12 13 14 15 16 17 18 19 20 21 22 23 24 25 26 27 28 29 30 31 32 33 34 35 36 37 38 39 40 41 42 43 44 45 46 47 48 49 50
000
ASUS43 KBIS 280520
RWRND

NORTH DAKOTA REGIONAL WEATHER ROUNDUP
NATIONAL WEATHER SERVICE BISMARCK ND
1200 AM CDT SAT MAR 28 2015

NOTE: "FAIR" INDICATES FEW OR NO CLOUDS BELOW 12,000 FEET WITH NO
SIGNIFICANT WEATHER AND/OR OBSTRUCTIONS TO VISIBILITY.


NDZ001>003-009>011-017-280600-
NORTHWEST NORTH DAKOTA

CITY           SKY/WX    TMP DP  RH WIND       PRES   REMARKS
WILLISTON      CLEAR     43  36  76 CALM      29.91F
MINOT          CLOUDY    33  30  88 NE7       29.95S
MINOT AFB      CLOUDY    33  33  99 E7        29.95F
$$

NDZ018>021-031>035-040>046-280600-
SOUTHWEST NORTH DAKOTA

CITY           SKY/WX    TMP DP  RH WIND       PRES   REMARKS
BISMARCK       CLOUDY    33  30  88 E9        29.96R
DICKINSON      CLEAR     35  29  78 S7        29.91S
GARRISON         N/A     36  32  85 CALM      29.93F
HETTINGER ARPT CLEAR     38  31  76 CALM      29.96R
$$

NDZ004>008-012>016-024-026-027-054-280600-
NORTHEAST NORTH DAKOTA

CITY           SKY/WX    TMP DP  RH WIND       PRES   REMARKS
GRAND FORKS    PTCLDY    24  20  84 S6        30.11S WCI  17
GRND FRKS AFB  PTCLDY    26  22  83 S8        30.10S WCI  18
DEVILS LAKE    CLOUDY    28  27  93 S14       30.03S WCI  17
$$

NDZ022-023-025-028>030-036>039-047>053-280600-
SOUTHEAST NORTH DAKOTA

CITY           SKY/WX    TMP DP  RH WIND       PRES   REMARKS
FARGO          CLOUDY    31  21  66 S9        30.12S
JAMESTOWN      CLOUDY    30  28  92 SE12      30.03R FOG
$$




USA.gov is the U.S. government's official web portal to all federal, state and local government web resources and services.